Location: Stull Observatory
(42.2506°N, 77.7903°W)
Time: 06:23:29
(UTC-04:00)

ISS - All Passes

Search period start: 04 September 2015 00:00
Search period end: 14 September 2015 00:00
Orbit: 400 x 403 km, 51.6° (Epoch: 01 September)

Date Brightness Start Highest point End Pass type
(mag) Time Alt. Az. Time Alt. Az. Time Alt. Az.
04 Sep - 08:02:09 10° SW 08:05:18 49° SE 08:08:28 10° ENE daylight
04 Sep - 09:38:58 10° W 09:41:51 28° NNW 09:44:43 10° NE daylight
04 Sep - 11:16:57 10° NW 11:19:02 16° N 11:21:07 10° NE daylight
04 Sep - 12:53:34 10° NW 12:56:17 24° NNE 12:59:00 10° ENE daylight
04 Sep - 14:29:42 10° WNW 14:32:57 70° SW 14:36:11 10° SE daylight
05 Sep - 07:09:24 10° SSW 07:12:07 25° SE 07:14:54 10° ENE daylight
05 Sep - 08:45:18 10° W 08:48:25 42° NNW 08:51:33 10° NE daylight
05 Sep - 10:23:14 10° NW 10:25:28 17° N 10:27:41 10° NE daylight
05 Sep - 12:00:21 10° NW 12:02:46 19° NNE 12:05:11 10° ENE daylight
05 Sep - 13:36:26 10° NW 13:39:40 62° NNE 13:42:53 10° ESE daylight
05 Sep - 15:13:41 10° W 15:15:47 16° SW 15:17:48 10° S daylight
06 Sep - 06:17:23 10° SSE 06:19:01 13° SE 06:20:45 10° E daylight
06 Sep - 07:51:50 10° WSW 07:55:05 73° NNW 07:58:21 10° NE daylight
06 Sep - 09:29:25 10° WNW 09:31:55 20° NNW 09:34:25 10° NE daylight
06 Sep - 11:07:03 10° NW 11:09:13 16° N 11:11:23 10° NE daylight
06 Sep - 12:43:14 10° NW 12:46:18 37° NNE 12:49:22 10° E daylight
06 Sep - 14:19:45 10° WNW 14:22:40 30° SW 14:25:32 10° SSE daylight
07 Sep - 06:58:37 10° SW 07:01:49 58° SE 07:05:02 10° ENE daylight
07 Sep - 08:35:37 10° W 08:38:26 26° NNW 08:41:14 10° NE daylight
07 Sep - 10:13:34 10° NW 10:15:39 16° N 10:17:43 10° NE daylight
07 Sep - 11:50:04 10° NW 11:52:52 25° NNE 11:55:39 10° E daylight
07 Sep - 13:26:16 10° WNW 13:29:28 59° SW 13:32:40 10° SE daylight
08 Sep - 06:05:45 10° SSW 06:08:38 29° SE 06:11:32 10° ENE visible
08 Sep - 07:41:55 10° W 07:44:59 37° NNW 07:48:04 10° NE daylight
08 Sep - 09:19:54 10° NW 09:22:04 16° N 09:24:15 10° NE daylight
08 Sep - 10:56:53 10° NW 10:59:21 20° NNE 11:01:51 10° ENE daylight
08 Sep - 12:32:57 10° NW 12:36:13 72° NNE 12:39:27 10° ESE daylight
08 Sep - 14:10:32 10° W 14:12:16 14° SW 14:13:55 10° SSW daylight
09 Sep - 05:13:30 10° S 05:15:30 16° SE 05:17:36 10° E visible
09 Sep - 06:48:23 10° WSW 06:51:37 63° NNW 06:54:53 10° NE daylight
09 Sep - 08:26:06 10° WNW 08:28:31 19° NNW 08:30:57 10° NE daylight
09 Sep - 10:03:36 10° NW 10:05:49 17° N 10:08:03 10° NE daylight
09 Sep - 11:39:44 10° NW 11:42:52 41° NNE 11:45:58 10° E daylight
09 Sep - 13:16:24 10° WNW 13:19:10 25° SW 13:21:54 10° SSE daylight
10 Sep - 05:55:06 10° SW 05:58:20 69° SE 06:01:36 10° ENE visible
10 Sep - 07:32:16 10° WNW 07:35:00 24° NNW 07:37:45 10° NE daylight
10 Sep - 09:10:10 10° NW 09:12:15 16° N 09:14:20 10° NE daylight
10 Sep - 10:46:35 10° NW 10:49:26 27° NNE 10:52:19 10° E daylight
10 Sep - 12:22:50 10° WNW 12:26:00 50° SW 12:29:09 10° SE daylight
11 Sep - 05:02:09 10° SSW 05:05:08 34° SE 05:08:10 10° ENE visible
11 Sep - 06:38:32 10° W 06:41:33 34° NNW 06:44:35 10° NE daylight
11 Sep - 08:16:32 10° NW 08:18:41 16° N 08:20:49 10° NE daylight
11 Sep - 09:53:24 10° NW 09:55:57 21° NNE 09:58:32 10° ENE daylight
11 Sep - 11:29:29 10° NW 11:32:45 84° NE 11:36:00 10° ESE daylight
11 Sep - 13:07:32 10° WSW 13:08:46 12° SW 13:09:52 10° SSW daylight
12 Sep - 04:09:42 10° S 04:12:00 18° SE 04:14:22 10° E visible
12 Sep - 05:44:58 10° WSW 05:48:11 55° NNW 05:51:24 10° NE visible
12 Sep - 07:22:45 10° WNW 07:25:07 18° N 07:27:29 10° NE daylight
12 Sep - 09:00:09 10° NW 09:02:25 17° N 09:04:42 10° NE daylight
12 Sep - 10:36:16 10° NW 10:39:25 46° NNE 10:42:35 10° ESE daylight
12 Sep - 12:13:04 10° W 12:15:40 22° SW 12:18:14 10° S daylight
13 Sep - 04:51:37 10° SW 04:54:53 81° SE 04:58:09 10° ENE visible
13 Sep - 06:28:56 10° WNW 06:31:36 22° NNW 06:34:16 10° NE daylight
13 Sep - 08:06:45 10° NW 08:08:52 16° N 08:10:58 10° NE daylight
13 Sep - 09:43:05 10° NW 09:46:01 30° NNE 09:48:58 10° E daylight
13 Sep - 11:19:24 10° WNW 11:22:32 42° SW 11:25:36 10° SSE daylight
